Change the Weather History Date:

Sunday, October 28, 2012

  Actual Average (KWRL) Record (KWRL)
Temperature  
Mean Temperature 39 °F 41 °F  
Max Temperature 50 °F 55 °F 78 °F (1985)
Min Temperature 28 °F 26 °F 11 °F (1970)
Degree Days  
Heating Degree Days 26 24  
Month to date heating degree days 529  
Since 1 July heating degree days 786  
Cooling Degree Days 0 0  
Month to date cooling degree days 0  
Year to date cooling degree days 535  
Moisture  
Dew Point 26 °F    
Average Humidity 61    
Maximum Humidity 80    
Minimum Humidity 43    
Precipitation  
Precipitation 0.00 in 0.02 in 0.34 in (1998)
Month to date precipitation 0.65  
Year to date precipitation 6.95  
Sea Level Pressure  
Sea Level Pressure 30.09 in    
Wind  
Wind Speed 11 mph ()    
Max Wind Speed 18 mph    
Max Gust Speed 32 mph    
Visibility 10.0 miles    
Events      
T = Trace of Precipitation, MM = Missing Value Source: Averaged Metar Reports

Daily Weather History Graph

Daily Weather History Graph

Search for Another Location

Airport or City:

Trip Planner

Search our weather history database for the weather conditions in past years. The results will help you decide how hot, cold, wet, or windy it might be!

Date:

Astronomy

Oct. 28, 2012 Rise Set
Actual Time 7:43 AM MDT 6:08 PM MDT
Civil Twilight 7:14 AM MDT 6:38 PM MDT
Nautical Twilight 6:40 AM MDT 7:11 PM MDT
Astronomical Twilight 6:07 AM MDT 7:45 PM MDT
Moon 5:28 PM MDT (10/28) 6:39 AM MDT (10/28)
Length of Visible Light 11h 23m
Length of Day
10h 24m
Waxing Gibbous, 99% of the Moon is Illuminated
Oct 28
Waxing Gibbous
Oct 29
Full
Nov 6
Last Quarter
Nov 13
New
Nov 20
First Quarter

Hourly Weather History & Observations

Time (MDT) Temp. Windchill Dew Point Humidity Pressure Visibility Wind Dir Wind Speed Gust Speed Precip Events Conditions
12:15 AM 32.0 °F 23.0 °F 23.0 °F 69% 30.12 in 10.0 mi South 11.5 mph 16.1 mph N/A   Mostly Cloudy
12:35 AM 32.0 °F 23.0 °F 23.0 °F 69% 30.11 in 10.0 mi South 11.5 mph 17.3 mph N/A   Mostly Cloudy
12:55 AM 32.0 °F 24.2 °F 23.0 °F 69% 30.10 in 10.0 mi SSE 9.2 mph - N/A   Scattered Clouds
1:15 AM 32.0 °F 22.5 °F 23.0 °F 69% 30.10 in 10.0 mi South 12.7 mph 17.3 mph N/A   Scattered Clouds
1:35 AM 32.0 °F 23.0 °F 23.0 °F 69% 30.10 in 10.0 mi SSE 11.5 mph 17.3 mph N/A   Scattered Clouds
2:35 AM 32.0 °F 22.1 °F 23.0 °F 69% 30.08 in 10.0 mi South 13.8 mph 21.9 mph N/A   Scattered Clouds
2:55 AM 32.0 °F 21.2 °F 23.0 °F 69% 30.07 in 10.0 mi SSE 16.1 mph 24.2 mph N/A   Scattered Clouds
3:15 AM 32.0 °F 22.1 °F 23.0 °F 69% 30.07 in 10.0 mi SSE 13.8 mph 25.3 mph N/A   Clear
3:35 AM 32.0 °F 23.6 °F 23.0 °F 69% 30.07 in 10.0 mi SSE 10.4 mph 21.9 mph N/A   Clear
3:55 AM 32.0 °F 23.6 °F 23.0 °F 69% 30.07 in 10.0 mi SSE 10.4 mph 18.4 mph N/A   Clear
4:15 AM 32.0 °F 24.2 °F 23.0 °F 69% 30.06 in 10.0 mi SSE 9.2 mph - N/A   Clear
4:35 AM 32.0 °F 22.5 °F 23.0 °F 69% 30.06 in 10.0 mi SSE 12.7 mph - N/A   Clear
4:55 AM 32.0 °F 22.5 °F 23.0 °F 69% 30.06 in 10.0 mi SSE 12.7 mph - N/A   Clear
5:15 AM 32.0 °F 21.2 °F 23.0 °F 69% 30.06 in 10.0 mi SSE 16.1 mph - N/A   Clear
5:35 AM 30.2 °F 20.2 °F 23.0 °F 75% 30.07 in 10.0 mi SE 12.7 mph - N/A   Clear
5:55 AM 30.2 °F 18.9 °F 23.0 °F 75% 30.06 in 10.0 mi SE 16.1 mph - N/A   Mostly Cloudy
6:15 AM 28.4 °F 16.2 °F 23.0 °F 80% 30.06 in 10.0 mi SE 17.3 mph - N/A   Scattered Clouds
6:35 AM 28.4 °F 15.8 °F 23.0 °F 80% 30.06 in 10.0 mi SE 18.4 mph - N/A   Clear
6:55 AM 30.2 °F 18.9 °F 23.0 °F 75% 30.06 in 10.0 mi SE 16.1 mph - N/A   Clear
7:35 AM 32.0 °F 20.8 °F 23.0 °F 69% 30.07 in 10.0 mi SSE 17.3 mph 21.9 mph N/A   Overcast
7:55 AM 32.0 °F 21.2 °F 21.2 °F 64% 30.07 in 10.0 mi SSE 16.1 mph - N/A   Overcast
8:35 AM 32.0 °F 22.5 °F 21.2 °F 64% 30.06 in 10.0 mi SSE 12.7 mph 20.7 mph N/A   Mostly Cloudy
8:55 AM 32.0 °F 21.2 °F 23.0 °F 69% 30.06 in 10.0 mi SE 16.1 mph 32.2 mph N/A   Mostly Cloudy
9:15 AM 32.0 °F 22.1 °F 23.0 °F 69% 30.07 in 10.0 mi SSE 13.8 mph 20.7 mph N/A   Overcast
9:35 AM 32.0 °F 23.6 °F 23.0 °F 69% 30.08 in 10.0 mi SSE 10.4 mph 17.3 mph N/A   Scattered Clouds
10:35 AM 35.6 °F 28.0 °F 26.6 °F 70% 30.08 in 10.0 mi South 10.4 mph - N/A   Clear
10:55 AM 35.6 °F 28.6 °F 26.6 °F 70% 30.08 in 10.0 mi South 9.2 mph 17.3 mph N/A   Clear
11:15 AM 35.6 °F 29.2 °F 26.6 °F 70% 30.08 in 10.0 mi SSW 8.1 mph - N/A   Clear
11:35 AM 41.0 °F 35.8 °F 28.4 °F 61% 30.08 in 10.0 mi SSW 8.1 mph - N/A   Clear
11:55 AM 42.8 °F 37.0 °F 30.2 °F 61% 30.08 in 10.0 mi SW 10.4 mph - N/A   Clear
12:15 PM 44.6 °F 39.7 °F 30.2 °F 57% 30.09 in 10.0 mi South 9.2 mph - N/A   Clear
12:35 PM 44.6 °F 38.1 °F 30.2 °F 57% 30.09 in 10.0 mi SW 13.8 mph - N/A   Clear
12:55 PM 46.4 °F 39.2 °F 30.2 °F 53% 30.10 in 10.0 mi WSW 18.4 mph 24.2 mph N/A   Clear
1:15 PM 46.4 °F 41.9 °F 30.2 °F 53% 30.08 in 10.0 mi SW 9.2 mph - N/A   Clear
1:35 PM 44.6 °F 38.4 °F 32.0 °F 61% 30.09 in 10.0 mi WSW 12.7 mph - N/A   Clear
1:55 PM 44.6 °F 39.2 °F 30.2 °F 57% 30.10 in 10.0 mi West 10.4 mph - N/A   Clear
2:15 PM 46.4 °F 41.9 °F 30.2 °F 53% 30.08 in 10.0 mi West 9.2 mph - N/A   Clear
2:35 PM 50.0 °F - 28.4 °F 43% 30.08 in 10.0 mi WSW 11.5 mph 17.3 mph N/A   Clear
2:55 PM 48.2 °F - 28.4 °F 46% 30.08 in 10.0 mi SSE 6.9 mph - N/A   Clear
3:15 PM 42.8 °F 36.6 °F 28.4 °F 57% 30.08 in 10.0 mi SSW 11.5 mph - N/A   Clear
3:35 PM 46.4 °F 41.5 °F 28.4 °F 50% 30.08 in 10.0 mi SW 10.4 mph 18.4 mph N/A   Clear
3:55 PM 46.4 °F 40.1 °F 28.4 °F 50% 30.08 in 10.0 mi SSW 15.0 mph 20.7 mph N/A   Clear
4:15 PM 46.4 °F 40.1 °F 30.2 °F 53% 30.08 in 10.0 mi SSW 15.0 mph - N/A   Clear
4:35 PM 44.6 °F 40.7 °F 30.2 °F 57% 30.08 in 10.0 mi SSE 6.9 mph 17.3 mph N/A   Clear
4:55 PM 42.8 °F 39.3 °F 28.4 °F 57% 30.08 in 10.0 mi SE 5.8 mph - N/A   Clear
5:15 PM 44.6 °F 40.7 °F 30.2 °F 57% 30.08 in 10.0 mi SSE 6.9 mph - N/A   Clear
5:35 PM 44.6 °F 40.2 °F 28.4 °F 53% 30.09 in 10.0 mi SSE 8.1 mph - N/A   Clear
5:55 PM 44.6 °F 41.4 °F 28.4 °F 53% 30.09 in 10.0 mi SSE 5.8 mph - N/A   Clear
6:15 PM 44.6 °F 40.2 °F 30.2 °F 57% 30.10 in 10.0 mi SE 8.1 mph - N/A   Clear
6:35 PM 44.6 °F 40.7 °F 28.4 °F 53% 30.10 in 10.0 mi SE 6.9 mph - N/A   Clear
6:55 PM 42.8 °F 38.0 °F 28.4 °F 57% 30.10 in 10.0 mi SSE 8.1 mph - N/A   Clear
7:15 PM 44.6 °F 39.7 °F 30.2 °F 57% 30.10 in 10.0 mi South 9.2 mph - N/A   Scattered Clouds
7:35 PM 44.6 °F 40.7 °F 30.2 °F 57% 30.11 in 10.0 mi South 6.9 mph - N/A   Scattered Clouds
8:15 PM 44.6 °F 38.4 °F 30.2 °F 57% 30.11 in 10.0 mi West 12.7 mph - N/A   Mostly Cloudy
8:35 PM 44.6 °F 38.1 °F 28.4 °F 53% 30.12 in 10.0 mi West 13.8 mph - N/A   Mostly Cloudy
8:55 PM 44.6 °F 38.8 °F 28.4 °F 53% 30.12 in 10.0 mi West 11.5 mph - N/A   Overcast
9:15 PM 44.6 °F 38.8 °F 28.4 °F 53% 30.13 in 10.0 mi West 11.5 mph - N/A   Overcast
9:35 PM 44.6 °F 39.2 °F 28.4 °F 53% 30.13 in 10.0 mi WNW 10.4 mph - N/A   Overcast
10:15 PM 44.6 °F 39.7 °F 28.4 °F 53% 30.14 in 10.0 mi West 9.2 mph - N/A   Overcast
10:35 PM 46.4 °F 42.4 °F 26.6 °F 46% 30.14 in 10.0 mi West 8.1 mph - N/A   Overcast
11:15 PM 46.4 °F 41.5 °F 26.6 °F 46% 30.16 in 10.0 mi South 10.4 mph - N/A   Overcast
11:35 PM 46.4 °F 43.5 °F 24.8 °F 43% 30.15 in 10.0 mi SE 5.8 mph - N/A   Overcast
11:55 PM 46.4 °F 42.4 °F 28.4 °F 50% 30.14 in 10.0 mi SSE 8.1 mph - N/A   Overcast